Theta_e
314 313 311 311 311 311 310 307 307 306 304 303 303 302 302 301 299 297 296 294 292 291 290 289 289 288 287 287 288 288 289 289 290 290 291 291 292 294 294 299 301 301 304
314 312 311 310 311 312 309 307 307 305 304 304 303 302 302 301 298 297 296 294 292 290 289 288 287 287 286 287 287 288 288 289 290 289 290 292 292 296 296 293 295 298 301
313 312 310 311 311 311 309 307 307 305 304 304 303 302 301 299 296 295 295 293 291 289 289 288 287 286 286 286 287 287 287 288 288 289 289 290 291 290 291 292 293 295 295
313 312 310 309 311 311 308 307 306 305 304 304 303 301 299 297 295 294 293 291 290 289 288 286 286 286 285 285 286 286 286 287 287 288 288 288 288 289 290 291 292 293 296
313 312 311 311 312 310 309 308 306 305 304 303 302 299 297 295 294 293 291 289 288 287 286 286 285 285 285 285 285 285 285 286 286 286 287 287 288 288 288 290 292 291 293
311 312 311 310 310 310 308 307 306 305 304 302 300 298 295 294 293 292 289 288 287 286 286 285 285 284 284 284 284 284 285 285 286 286 286 286 286 287 288 288 289 290 291
310 311 310 309 308 309 308 307 306 305 303 301 298 296 294 293 292 290 287 286 285 285 285 284 284 284 283 283 283 284 284 284 285 285 285 285 286 286 286 287 288 289 290
309 309 309 309 309 309 308 307 305 304 301 298 296 294 293 293 291 288 286 286 285 285 284 284 283 283 283 283 283 283 283 284 284 285 284 285 285 286 286 286 287 288 290
309 309 309 309 310 309 308 306 304 302 299 297 295 294 293 291 288 286 286 285 285 284 284 284 283 283 282 282 283 283 283 283 283 284 284 284 285 285 286 286 287 288 289
309 309 308 309 309 308 306 304 301 298 296 295 294 293 292 289 286 286 285 285 285 284 283 283 282 282 282 282 282 282 282 282 283 283 283 284 285 285 285 287 286 286 287
309 308 307 309 308 307 304 302 299 297 295 294 293 292 289 287 286 285 285 284 284 283 283 283 282 282 281 281 281 281 282 282 282 282 282 283 283 284 284 285 285 286 287
308 306 308 307 305 302 300 298 296 295 294 293 292 289 287 286 285 285 284 284 284 283 283 283 281 281 281 281 281 281 281 281 281 281 281 282 282 283 284 285 285 286 286
304 304 304 303 302 300 297 296 294 293 293 291 289 287 286 285 285 284 284 284 283 284 283 282 281 280 280 280 280 280 280 280 280 281 281 282 282 283 284 285 285 285 286
301 300 297 298 298 297 295 294 293 293 291 288 286 286 285 285 284 284 284 284 284 284 283 282 282 281 280 279 279 279 280 280 281 281 281 282 282 283 284 284 285 286 286
297 295 294 294 296 294 293 292 292 291 288 286 286 285 285 284 284 284 284 284 284 284 284 284 283 281 279 279 279 280 280 281 281 282 282 283 283 283 284 285 286 287 287
296 294 294 295 294 293 292 292 290 288 286 285 285 284 284 284 284 284 284 285 284 284 284 284 283 281 280 279 280 280 281 281 282 282 283 283 283 284 284 285 286 287 288
294 293 294 294 292 292 291 290 288 286 285 285 284 284 284 284 284 284 285 284 284 285 285 284 281 281 280 280 281 281 281 281 282 282 282 283 283 284 284 285 286 287 287
294 292 292 292 291 291 290 288 286 285 285 284 283 283 283 284 284 284 284 284 285 285 285 283 281 281 282 281 281 281 282 282 282 282 282 283 283 284 284 285 286 286 287
294 293 292 292 291 290 287 286 285 284 284 283 283 283 283 284 284 284 284 284 284 284 284 282 282 282 283 282 281 281 282 282 283 283 283 284 284 284 285 285 285 286 287
293 292 291 291 289 287 285 285 284 283 283 283 283 283 284 284 284 284 284 284 283 283 281 284 283 283 284 284 282 283 283 283 284 284 284 285 285 285 285 286 287 287 288
292 291 290 289 286 285 284 284 283 283 283 283 283 283 284 284 284 284 284 282 282 281 281 282 283 283 282 283 283 283 284 284 284 285 285 285 286 286 286 287 288 288 288
289 289 288 285 284 284 283 283 282 282 282 283 283 283 284 284 284 283 283 283 282 282 282 280 281 282 282 282 283 284 285 286 286 286 285 285 286 286 286 287 287 288 289
288 286 285 284 283 283 282 282 282 282 282 282 283 283 284 284 283 283 283 282 282 280 280 280 281 282 282 283 283 284 285 286 287 287 287 287 287 286 287 287 287 288 289
286 284 283 283 282 282 282 282 282 282 282 282 283 283 283 283 283 283 282 282 281 281 279 280 281 281 282 283 284 285 285 286 286 286 287 288 288 287 287 287 288 288 289
284 283 283 282 281 281 281 281 282 282 282 282 283 283 282 282 283 283 282 282 282 279 279 280 281 281 282 283 284 285 284 285 285 286 287 287 288 288 288 288 288 289 289
282 282 281 281 281 281 281 281 281 281 282 282 282 282 282 282 282 282 284 283 283 283 282 280 280 281 282 283 284 283 283 283 284 284 285 286 287 288 288 288 288 289 288
Wind_Speed
29 28 29 30 28 25 22 21 18 15 12 11 11 13 16 19 21 25 29 31 31 31 30 29 30 28 26 26 24 23 23 22 21 27 30 28 26 18 22 17 17 18 21
29 30 30 32 32 27 24 22 20 17 15 14 14 16 18 21 23 27 31 33 33 31 30 30 29 28 26 24 21 21 22 21 19 24 28 21 30 4 16 25 19 19 19
35 32 33 35 33 30 26 24 21 18 18 17 16 18 20 22 24 28 32 33 32 30 31 32 32 30 27 24 22 20 20 24 21 18 15 14 12 35 14 21 20 16 22
32 31 33 33 35 31 28 24 22 21 20 18 17 18 20 23 25 30 33 33 31 31 32 31 30 28 26 24 23 20 21 21 24 21 18 22 29 29 27 22 26 24 20
32 33 33 35 34 31 29 25 23 22 21 19 18 19 21 24 28 31 33 31 30 32 32 30 29 27 26 25 26 24 21 21 22 24 23 22 25 26 31 35 25 28 22
29 29 29 29 30 31 29 26 25 24 22 20 19 19 22 25 29 31 32 30 32 32 30 29 29 27 25 25 25 24 23 22 22 24 25 26 25 27 28 32 33 33 28
27 27 28 28 28 30 29 27 25 24 22 20 19 20 23 26 29 31 30 31 31 30 30 30 28 27 27 27 26 24 23 22 22 23 26 27 28 29 29 32 35 33 29
25 27 28 29 29 30 29 27 26 24 21 19 19 20 24 27 30 30 30 31 31 31 31 30 30 30 28 27 25 23 23 22 22 24 25 26 27 26 27 28 30 33 29
23 23 24 25 28 29 27 26 23 21 19 18 18 21 25 28 29 30 30 30 31 32 32 32 31 29 28 27 25 24 23 23 23 23 24 24 25 24 24 25 25 23 28
21 21 24 27 27 26 25 23 21 19 17 17 19 23 26 28 28 29 29 30 32 32 32 31 31 30 28 26 24 24 23 24 24 22 22 23 23 23 23 22 24 26 27
22 22 25 28 28 26 24 23 20 17 16 17 20 23 25 26 26 27 28 30 31 31 31 32 31 30 27 26 25 25 25 24 24 23 22 23 23 23 21 23 24 24 23
21 25 27 27 24 23 21 19 16 14 15 17 20 22 23 24 25 26 28 29 30 30 31 31 30 27 26 25 25 26 24 24 24 23 22 22 20 20 19 19 21 21 22
23 24 25 25 24 22 20 17 13 12 14 17 19 20 21 23 24 26 27 29 29 30 30 28 27 27 26 26 24 24 24 23 22 21 20 21 20 19 18 18 19 21 20
24 24 23 22 22 20 18 14 11 11 14 16 17 18 20 22 24 25 27 29 29 29 28 27 28 27 25 24 23 21 21 22 22 22 22 21 21 20 20 19 18 18 18
22 23 23 22 22 20 16 11 9 11 13 14 15 17 19 21 23 25 27 28 27 27 28 29 28 26 23 21 21 24 24 23 22 22 20 20 20 20 21 20 19 18 16
24 24 24 23 21 18 13 9 9 10 11 13 15 17 19 22 24 26 27 26 27 27 28 27 26 25 22 22 23 22 24 24 25 23 21 20 21 19 17 17 19 20 20
27 27 26 24 21 16 11 7 8 9 10 12 14 17 20 22 25 26 26 26 27 27 27 26 24 25 23 22 23 23 23 23 23 22 21 20 18 18 18 17 14 16 17
27 27 26 24 19 13 8 6 6 8 9 11 14 17 20 23 24 25 25 25 26 26 26 25 24 24 24 22 23 23 23 22 21 20 19 19 19 18 16 15 15 15 16
27 27 25 22 16 10 7 5 5 6 8 11 14 17 21 23 25 24 24 24 25 25 24 24 25 24 24 21 22 20 20 21 20 19 18 18 19 17 14 15 15 15 16
29 30 25 19 13 9 7 4 3 5 7 11 14 18 21 23 23 24 24 24 23 24 24 25 24 24 23 22 22 21 20 22 21 19 17 16 17 17 14 13 12 14 14
32 27 21 16 12 9 6 2 2 4 8 11 14 18 20 22 22 23 23 23 23 23 24 25 24 22 21 23 22 21 19 21 22 22 21 19 17 16 15 15 17 17 14
30 24 19 16 12 8 5 2 2 5 8 11 15 17 19 20 21 23 23 23 23 24 25 23 24 22 22 23 23 21 20 19 22 22 19 19 17 17 17 15 16 15 15
27 22 18 15 11 8 5 2 2 6 9 12 15 16 17 19 21 23 23 23 23 23 23 23 26 27 26 25 23 22 23 25 26 25 23 21 20 18 15 14 16 15 15
25 21 17 14 11 8 4 2 3 7 10 13 14 16 18 20 21 22 22 24 23 23 23 26 26 28 29 27 26 30 33 31 28 26 24 21 18 17 18 16 15 17 18
22 19 16 14 10 7 4 3 5 8 10 12 14 16 18 20 21 22 24 23 21 20 23 24 25 27 29 28 31 32 31 28 26 25 24 25 22 21 19 19 18 16 18
22 19 16 13 10 7 4 4 5 8 10 13 15 17 18 20 22 24 23 20 20 19 18 19 20 24 25 28 32 29 27 26 25 22 21 21 21 22 21 20 19 19 17
Wind_Direction
209 203 203 206 208 211 215 215 219 226 235 249 267 284 297 310 319 328 330 331 330 329 329 326 322 320 317 314 313 311 310 308 309 309 309 303 310 294 289 283 284 281 281
205 201 201 205 210 215 216 216 221 227 236 249 264 280 296 306 317 324 328 329 330 329 328 324 320 318 315 312 310 309 309 306 309 309 312 315 313 238 294 294 292 285 293
201 200 198 205 209 213 215 218 224 230 240 252 267 283 298 308 318 322 324 326 326 326 324 320 318 316 314 309 310 309 307 305 305 304 295 312 293 313 314 298 303 298 307
205 202 198 201 208 213 215 219 226 233 244 254 269 284 297 308 316 320 322 323 325 324 321 319 317 315 313 309 307 306 303 302 301 298 285 275 282 294 302 297 294 306 297
202 199 199 206 211 211 216 220 228 235 244 255 268 284 299 309 316 320 320 322 322 320 320 320 319 317 313 309 307 305 300 296 293 290 290 283 281 282 282 294 299 299 301
200 200 201 202 205 211 215 221 229 235 243 254 268 284 299 309 316 319 319 320 320 319 320 320 318 314 310 307 305 302 297 294 289 288 287 284 281 283 286 288 294 297 302
195 195 195 197 201 209 215 222 227 233 241 253 269 288 302 312 316 318 318 319 319 318 319 318 315 312 309 306 304 299 295 293 290 286 283 280 280 281 282 285 290 295 300
192 193 195 198 203 210 217 222 225 230 240 254 275 293 306 313 316 319 320 319 317 317 317 315 312 311 307 305 302 297 294 292 289 287 285 283 284 281 280 280 285 294 298
188 189 188 190 202 210 215 220 222 229 241 259 281 298 309 315 318 321 320 318 317 316 315 315 312 309 307 305 300 297 294 292 291 289 286 282 282 281 283 282 278 283 297
182 180 182 189 198 206 211 213 218 230 248 270 289 304 312 317 320 320 319 317 317 318 316 314 312 310 307 304 300 297 295 292 291 290 288 287 283 279 283 277 278 277 277
175 172 178 190 197 201 203 208 217 233 256 280 298 309 316 320 320 319 319 319 319 317 316 316 313 310 307 304 301 297 296 294 291 289 288 285 282 282 282 279 279 278 277
169 175 180 185 190 194 199 207 220 242 269 290 306 315 319 318 319 319 321 321 320 320 318 316 313 308 306 305 301 298 296 294 293 293 290 287 286 281 283 283 279 277 280
170 173 177 180 186 191 198 208 227 256 283 302 312 316 316 318 320 322 324 324 323 323 320 317 314 313 309 305 301 298 297 295 293 293 292 291 289 283 282 283 284 285 285
174 173 174 178 183 190 199 212 237 269 294 307 313 313 316 321 324 326 326 327 326 326 323 321 318 315 308 305 304 303 301 298 297 296 295 291 285 281 281 284 284 285 287
174 176 175 178 185 191 200 220 253 284 300 309 311 316 321 325 327 329 329 329 329 327 326 324 321 317 310 308 307 307 304 301 299 297 293 290 285 281 277 275 276 279 283
179 177 179 183 186 191 202 226 265 291 302 307 315 322 326 329 331 332 331 332 330 329 327 324 322 318 313 309 308 306 305 301 298 296 293 288 288 285 281 272 273 274 277
181 181 183 183 186 192 204 234 273 290 300 313 323 328 330 333 335 334 334 333 330 328 327 325 321 318 316 315 311 308 305 301 296 292 291 288 283 279 277 278 280 261 263
180 180 179 179 184 190 208 244 271 290 311 324 330 331 334 336 335 337 335 331 329 328 327 325 322 316 320 318 314 312 306 300 296 292 290 286 284 280 279 275 272 271 269
178 177 177 178 180 189 205 230 265 303 325 331 333 337 337 338 338 336 333 329 328 328 326 324 321 320 323 325 316 316 317 308 302 298 293 287 284 284 279 271 266 266 269
174 172 172 173 178 183 196 218 279 323 329 332 339 341 341 340 337 333 332 330 328 326 323 325 325 326 330 334 321 317 316 309 305 303 296 289 283 282 276 273 264 261 267
166 168 166 171 173 177 182 189 314 324 333 342 344 345 344 340 336 335 336 332 327 323 325 326 329 331 330 327 321 316 314 310 303 298 296 290 282 278 274 261 260 258 262
160 164 165 166 166 167 162 149 323 332 345 349 349 349 346 341 340 342 338 335 332 331 331 326 330 328 328 325 322 318 315 316 307 301 296 287 280 277 271 259 253 259 259
158 161 166 162 159 155 146 140 344 348 355 355 352 349 347 347 349 344 343 340 337 332 332 329 328 328 332 329 325 324 320 318 312 307 302 297 284 280 269 258 250 248 251
158 160 160 157 154 148 136 94 9 2 0 356 353 352 352 356 353 351 352 344 339 336 332 328 327 331 331 329 332 333 324 316 309 302 297 295 285 270 258 256 248 242 238
156 160 157 152 149 140 121 64 19 8 1 357 358 357 359 353 356 0 354 354 352 336 327 327 326 327 327 328 328 323 319 313 304 296 288 280 279 269 259 251 249 242 237
160 156 152 151 145 135 109 59 26 8 1 3 2 4 358 358 358 354 358 5 359 357 349 332 328 329 329 329 328 324 321 317 306 298 287 274 268 264 259 256 248 247 246